Tracking 19146 objects as of 23-Apr-2018
HD Live streaming from Space Station
objects crossing your sky now

FENGYUN 1C DEB

Track FENGYUN 1C DEB now!
10-day predictions


NORAD ID: 32230
Int'l Code: 1999-025CWC
Perigee: 765.8 km
Apogee: 892.0 km
Inclination: 98.9 °
Period: 101.3 minutes
Semi major axis: 7199 km
RCS: 0.0054 m2 (small)
Launch date: May 10, 1999
Source: People's Republic of China (PRC)
Launch site: Taiyaun Space Center, China (TSC)

Note: This is SATELLITE DEBRIS
aabbcc
Your satellite tracking list
Your tracking list is empty




NASA's NSSDC Master Catalog

Two Line Element Set (TLE):
1 32230U 99025CWC 18112.67245559  .00000820  00000-0  38385-3 0  9991
2 32230  98.8894 181.6694 0087602 291.3622 221.3925 14.21067569558509
Source of the keplerian elements: AFSPC